This is the latest recevied weather packets stored in our database for station/object AJ5AG. If no packets are shown the sender has not sent any weather packets the latest 10 day(s).
| Time | Temp. | Humidity | Pressure | Rain* | Wind** | Luminosity | Snow |
|---|---|---|---|---|---|---|---|
| 1777607013 | 17.78° C | 96% | 1014.9 hPa | 0 mm | - | 0 W/m² | - |
| 1777606709 | 17.78° C | 96% | 1014.6 hPa | 0 mm | - | 0 W/m² | - |
| 1777606405 | 17.78° C | 96% | 1014.9 hPa | 0 mm | - | 0 W/m² | - |
| 1777606100 | 17.78° C | 95% | 1015.2 hPa | 0 mm | - | 0 W/m² | - |
| 1777605796 | 17.78° C | 95% | 1014.6 hPa | 0 mm | - | 0 W/m² | - |
| 1777605495 | 17.78° C | 95% | 1014.5 hPa | 1.27 mm | - | 0 W/m² | - |
| 1777605192 | 18.33° C | 95% | 1014.9 hPa | 3.05 mm | - | 0 W/m² | - |
| 1777604888 | 18.33° C | 94% | 1015.1 hPa | 3.05 mm | - | 0 W/m² | - |
| 1777604583 | 18.33° C | 94% | 1014.9 hPa | 7.11 mm | - | 0 W/m² | - |
| 1777604280 | 18.33° C | 93% | 1014.9 hPa | 7.87 mm | - | 0 W/m² | - |
| 1777603975 | 18.33° C | 93% | 1015.4 hPa | 1.78 mm | - | 0 W/m² | - |
| 1777603672 | 18.33° C | 93% | 1015.3 hPa | 0 mm | - | 0 W/m² | - |
| 1777603369 | 18.33° C | 93% | 1014.6 hPa | 0 mm | - | 0 W/m² | - |
| 1777603064 | 18.33° C | 93% | 1014.6 hPa | 0 mm | - | 0 W/m² | - |
| 1777602759 | 18.33° C | 93% | 1014.5 hPa | 0 mm | - | 0 W/m² | - |
| 1777602454 | 18.33° C | 93% | 1014.5 hPa | 0 mm | - | 0 W/m² | - |
| 1777602151 | 18.33° C | 93% | 1014.3 hPa | 0 mm | - | 0 W/m² | - |
| 1777601846 | 18.33° C | 93% | 1013.9 hPa | 0 mm | - | 0 W/m² | - |
| 1777601542 | 18.33° C | 93% | 1014 hPa | 0 mm | - | 0 W/m² | - |
| 1777601237 | 18.33° C | 93% | 1014.1 hPa | 0 mm | - | 0 W/m² | - |
| 1777600935 | 18.33° C | 93% | 1014.1 hPa | 0 mm | - | 0 W/m² | - |
| 1777600630 | 18.33° C | 93% | 1014.2 hPa | 0 mm | - | 0 W/m² | - |
| 1777600327 | 18.33° C | 93% | 1014.2 hPa | 0 mm | - | 0 W/m² | - |
| 1777600022 | 18.89° C | 93% | 1014.3 hPa | 0 mm | - | 0 W/m² | - |
| 1777599719 | 18.89° C | 93% | 1014.3 hPa | 0 mm | - | 0 W/m² | - |
* Rain latest hour (hover to see other rain measurements)
** Current wind speed in m/s (hover to see current wind gust speed)